Flag for Congo Weather past 2 weeks in Brazzaville, Congo

Now
77 °F

Clear.


Feels Like: 78 °F
Forecast: 74 / 87 °F
Wind: 2 mph from North

Location: Brazzaville / Maya-Maya

Current Time: May 4, 2015 at 10:13:47 PM

Latest Report: May 4, 2015 at 9:00 PM


Visibility: 4 mi

Pressure: 29.89 "Hg

Humidity: 83%

Dew point: 72 °F

Location of BrazzavilleLocation

Historic Weather in Brazzaville — Graph

°F

Brazzaville temperature yesterday

Maximum temperature yesterday: 88 °F (at 4:00 PM)
Minimum temperature yesterday: 75 °F (at 4:00 AM)
Average temperature yesterday: 80 °F

Past Weeks' High & Low Weather Summary

 TemperatureHumidityPressure
High95 °F (Apr 23, 3:00 PM)100% (Apr 24, 2:00 AM)30.04 "Hg (Apr 24, 2:00 AM)
Low72 °F (Apr 21, 12:00 AM)44% (May 2, 2:00 PM)29.74 "Hg (Apr 23, 4:00 PM)
Average80 °F78%29.90 "Hg
* Reported Apr 19 9:00 PM — May 4 9:00 PM, Brazzaville, Weather by CustomWeather, © 2015

Note: Actual official high and low records may vary slightly from our data, if they occured in-between our weather recording intervals... More about our weather records

Advertising

Brazzaville weather history for previous 24 hours

 ConditionsComfort  
Time TempWeatherWind HumidityBarometerVisibility
9:00 PM
Mon, May 4
77 °FClear.2 mph83%29.89 "Hg4 mi
8:00 PM79 °FClear.3 mph79%29.86 "Hg4 mi
7:00 PM79 °FClear.2 mph84%29.86 "Hg6 mi
6:00 PM81 °FPassing clouds.5 mph74%29.83 "Hg6 mi
5:00 PM82 °FScattered clouds.6 mph66%29.83 "Hg6 mi
4:00 PM84 °FPassing clouds.2 mph66%29.83 "Hg6 mi
3:00 PM84 °FBroken clouds.3 mph66%29.86 "HgN/A
2:00 PM86 °FBroken clouds.3 mph62%29.89 "HgN/A
1:00 PM82 °FPartly sunny.2 mph70%29.92 "HgN/A
12:00 PM81 °FPartly sunny.3 mph74%29.95 "HgN/A
11:00 AM81 °FPartly sunny.6 mph74%29.95 "HgN/A
10:00 AM77 °FPartly sunny.3 mph83%29.98 "HgN/A
9:00 AM77 °FPartly sunny.6 mph83%29.98 "Hg4 mi
8:00 AM77 °FPartly sunny.No wind89%29.98 "Hg4 mi
7:00 AM77 °FPartly sunny.2 mph89%29.95 "Hg5 mi
6:00 AM75 °FPartly sunny.No wind94%29.92 "Hg5 mi
5:00 AM75 °FPassing clouds.1 mph94%29.89 "Hg5 mi
4:00 AM75 °FPassing clouds.1 mph94%29.89 "Hg5 mi
2:00 AM75 °FClear.2 mph94%29.86 "Hg5 mi
1:00 AM75 °FClear.5 mph89%29.89 "Hg5 mi
12:00 AM77 °FPassing clouds.2 mph89%29.89 "Hg5 mi
11:00 PM
Sun, May 3
77 °FThunderstorms. Passing clouds.1 mph89%29.92 "HgN/A
10:00 PM79 °FThunderstorms. Passing clouds.3 mph79%29.92 "HgN/A
Weather by CustomWeather, © 2015

See weather overviewHow to use our weather pages